Weather History for KFOZ - July, 2013

Change the Weather History Date:

Saturday, July 27, 2013

  Actual Average (KGPZ) Record (KGPZ)
Temperature  
Mean Temperature 52 °F -  
Max Temperature 59 °F 79 °F 96 °F (1929)
Min Temperature 46 °F 53 °F 39 °F (1971)
Degree Days  
Heating Degree Days 12    
Growing Degree Days 2 (Base 50)    
Moisture  
Dew Point 45 °F    
Average Humidity 79    
Maximum Humidity 88    
Minimum Humidity 63    
Precipitation  
Precipitation 0.00 in - - ()
Sea Level Pressure  
Sea Level Pressure 30.04 in    
Wind  
Wind Speed 6 mph (NNW)    
Max Wind Speed 18 mph    
Max Gust Speed 30 mph    
Visibility 10 miles    
Events Rain    
Averages and records for this station are not official NWS values.
T = Trace of Precipitation, MM = Missing Value Source: NWS Daily Summary

Daily Weather History Graph

Daily Weather History Graph

Search for Another Location

Airport or City:

Trip Planner

Search our weather history database for the weather conditions in past years. The results will help you decide how hot, cold, wet, or windy it might be!

Date:

Astronomy

Jul. 27, 2013 Rise Set
Actual Time 5:45 AM CDT 8:55 PM CDT
Civil Twilight 5:08 AM CDT 9:32 PM CDT
Nautical Twilight 4:20 AM CDT 10:20 PM CDT
Astronomical Twilight 3:19 AM CDT 11:20 PM CDT
Moon 11:11 PM CDT (7/27) 11:57 AM CDT (7/27)
Length of Visible Light 16h 24m
Length of Day
15h 10m
Waning Gibbous, 70% of the Moon is Illuminated
Jul 27
Waning Gibbous
Jul 29
Last Quarter
Aug 6
New
Aug 14
First Quarter
Aug 20
Full

Hourly Weather History & Observations

Time (CDT) Temp. Windchill Dew Point Humidity Pressure Visibility Wind Dir Wind Speed Gust Speed Precip Events Conditions
12:13 AM 48.2 °F - 44.6 °F 87% 30.13 in 10.0 mi NNW 3.5 mph - N/A   Overcast
12:33 AM 48.2 °F - 44.6 °F 87% 30.12 in 10.0 mi NW 3.5 mph - N/A   Overcast
12:53 AM 48.2 °F - 44.6 °F 87% 30.12 in 10.0 mi NNW 4.6 mph - N/A   Overcast
1:13 AM 48.2 °F - 44.6 °F 87% 30.12 in 10.0 mi NW 3.5 mph - N/A   Overcast
1:33 AM 48.2 °F - 44.6 °F 87% 30.11 in 10.0 mi WNW 3.5 mph - N/A   Overcast
1:53 AM 48.2 °F - 44.6 °F 87% 30.11 in 10.0 mi Calm Calm - N/A   Overcast
2:13 AM 48.2 °F - 44.6 °F 87% 30.10 in 10.0 mi NW 3.5 mph - N/A   Overcast
2:33 AM 48.2 °F - 42.8 °F 82% 30.10 in 10.0 mi NW 3.5 mph - N/A   Mostly Cloudy
2:53 AM 48.2 °F - 42.8 °F 82% 30.09 in 10.0 mi NW 3.5 mph - N/A   Scattered Clouds
3:13 AM 48.2 °F - 42.8 °F 82% 30.09 in 10.0 mi NNW 4.6 mph - N/A   Mostly Cloudy
3:33 AM 48.2 °F - 42.8 °F 82% 30.08 in 10.0 mi NW 4.6 mph - N/A   Scattered Clouds
3:53 AM 48.2 °F - 42.8 °F 82% 30.08 in 10.0 mi NW 4.6 mph - N/A   Scattered Clouds
4:13 AM 48.2 °F - 42.8 °F 82% 30.07 in 10.0 mi NW 3.5 mph - N/A   Scattered Clouds
4:33 AM 46.4 °F - 42.8 °F 87% 30.07 in 10.0 mi Calm Calm - N/A   Scattered Clouds
4:53 AM 46.4 °F 44.3 °F 42.8 °F 87% 30.07 in 10.0 mi NW 4.6 mph - N/A   Clear
5:13 AM 48.2 °F - 42.8 °F 82% 30.06 in 10.0 mi NNW 5.8 mph - N/A   Scattered Clouds
5:33 AM 48.2 °F - 42.8 °F 82% 30.06 in 10.0 mi NNW 5.8 mph - N/A   Scattered Clouds
5:53 AM 48.2 °F - 42.8 °F 82% 30.06 in 10.0 mi North 5.8 mph - N/A   Clear
6:13 AM 48.2 °F - 44.6 °F 87% 30.07 in 10.0 mi North 9.2 mph - N/A   Clear
6:33 AM 48.2 °F - 44.6 °F 87% 30.07 in 10.0 mi North 8.1 mph - N/A   Mostly Cloudy
6:53 AM 48.2 °F - 44.6 °F 87% 30.07 in 10.0 mi North 5.8 mph - N/A Rain Rain
7:13 AM 48.2 °F - 44.6 °F 87% 30.07 in 10.0 mi North 5.8 mph - N/A Rain Light Rain
7:33 AM 50.0 °F - 44.6 °F 82% 30.06 in 10.0 mi North 6.9 mph - N/A   Scattered Clouds
7:53 AM 50.0 °F - 44.6 °F 82% 30.06 in 10.0 mi North 3.5 mph - N/A Rain Light Rain
8:13 AM 50.0 °F - 46.4 °F 87% 30.06 in 10.0 mi WNW 4.6 mph - N/A   Light Drizzle
8:33 AM 50.0 °F - 46.4 °F 87% 30.06 in 10.0 mi NW 3.5 mph - N/A Rain Light Rain
8:53 AM 50.0 °F - 46.4 °F 87% 30.05 in 10.0 mi WNW 4.6 mph - N/A Rain Light Rain
9:13 AM 51.8 °F - 46.4 °F 82% 30.05 in 10.0 mi WNW 3.5 mph - N/A Rain Light Rain
9:33 AM 51.8 °F - 48.2 °F 88% 30.04 in 10.0 mi WNW 4.6 mph - N/A Rain Light Rain
9:53 AM 51.8 °F - 48.2 °F 88% 30.03 in 10.0 mi NNW 5.8 mph - N/A Rain Light Rain
10:13 AM 53.6 °F - 48.2 °F 82% 30.03 in 10.0 mi NNW 8.1 mph - N/A Rain Light Rain
10:33 AM 55.4 °F - 48.2 °F 77% 30.02 in 10.0 mi NNW 8.1 mph - N/A   Light Drizzle
10:53 AM 55.4 °F - 48.2 °F 77% 30.01 in 10.0 mi NNW 8.1 mph 16.1 mph N/A   Clear
11:13 AM 57.2 °F - 46.4 °F 67% 30.00 in 10.0 mi NNW 10.4 mph 18.4 mph N/A   Clear
11:33 AM 57.2 °F - 46.4 °F 67% 30.00 in 10.0 mi North 10.4 mph 19.6 mph N/A   Scattered Clouds
11:53 AM 57.2 °F - 46.4 °F 67% 30.00 in 10.0 mi North 10.4 mph 21.9 mph N/A   Clear
12:13 PM 59.0 °F - 46.4 °F 63% 29.99 in 10.0 mi North 12.7 mph 17.3 mph N/A   Clear
12:33 PM 59.0 °F - 46.4 °F 63% 29.99 in 10.0 mi North 11.5 mph 21.9 mph N/A   Scattered Clouds
12:53 PM - - - N/A% 29.99 in 10.0 mi NNW 11.5 mph 23.0 mph N/A   Scattered Clouds
12:59 PM 57.2 °F - 46.4 °F 67% 29.99 in 10.0 mi North - - N/A Rain Light Rain
1:33 PM 55.4 °F - 48.2 °F 77% 30.00 in 10.0 mi North 9.2 mph 18.4 mph N/A Rain Light Rain
1:53 PM 57.2 °F - 48.2 °F 72% 30.00 in 10.0 mi North 4.6 mph - N/A Rain Light Rain
2:13 PM 55.4 °F - 48.2 °F 77% 30.00 in 10.0 mi North 6.9 mph 16.1 mph N/A Rain Light Rain
2:33 PM 55.4 °F - 50.0 °F 82% 30.01 in 10.0 mi North 9.2 mph 17.3 mph N/A Rain Light Rain
2:53 PM 55.4 °F - 48.2 °F 77% 30.01 in 10.0 mi North 9.2 mph 17.3 mph N/A Rain Light Rain
3:13 PM 55.4 °F - 46.4 °F 72% 30.01 in 10.0 mi North 13.8 mph 20.7 mph N/A   Mostly Cloudy
3:33 PM 55.4 °F - 46.4 °F 72% 30.01 in 10.0 mi NNW 9.2 mph 18.4 mph N/A   Overcast
3:53 PM 53.6 °F - 46.4 °F 77% 30.01 in 10.0 mi North 15.0 mph 23.0 mph N/A Rain Light Rain
4:13 PM 55.4 °F - 44.6 °F 67% 30.02 in 10.0 mi North 10.4 mph 25.3 mph N/A   Light Drizzle
4:33 PM 53.6 °F - 44.6 °F 72% 30.03 in 10.0 mi North 15.0 mph 29.9 mph N/A   Mostly Cloudy
4:53 PM 53.6 °F - 44.6 °F 72% 30.03 in 10.0 mi North 10.4 mph 23.0 mph N/A   Mostly Cloudy
5:13 PM 53.6 °F - 44.6 °F 72% 30.03 in 10.0 mi North 15.0 mph 21.9 mph N/A   Overcast
5:33 PM 53.6 °F - 42.8 °F 67% 30.03 in 10.0 mi North 18.4 mph 24.2 mph N/A   Mostly Cloudy
5:53 PM 53.6 °F - 44.6 °F 72% 30.03 in 10.0 mi North 10.4 mph 20.7 mph N/A   Mostly Cloudy
6:13 PM 53.6 °F - 44.6 °F 72% 30.03 in 10.0 mi North 9.2 mph 19.6 mph N/A Rain Light Rain
6:33 PM 51.8 °F - 46.4 °F 82% 30.03 in 10.0 mi North 9.2 mph 19.6 mph N/A Rain Light Rain
6:53 PM 51.8 °F - 46.4 °F 82% 30.02 in 10.0 mi North 8.1 mph 16.1 mph N/A Rain Light Rain
7:13 PM 51.8 °F - 46.4 °F 82% 30.03 in 10.0 mi North 6.9 mph - N/A   Overcast
7:33 PM 53.6 °F - 46.4 °F 77% 30.02 in 10.0 mi North 8.1 mph - N/A   Overcast
7:53 PM 51.8 °F - 44.6 °F 76% 30.02 in 10.0 mi North 9.2 mph 19.6 mph N/A   Mostly Cloudy
8:13 PM 51.8 °F - 46.4 °F 82% 30.02 in 10.0 mi North 6.9 mph - N/A   Mostly Cloudy
8:33 PM 51.8 °F - 44.6 °F 76% 30.02 in 10.0 mi North 8.1 mph - N/A   Scattered Clouds
8:53 PM 51.8 °F - 44.6 °F 76% 30.01 in 10.0 mi North 6.9 mph - N/A   Mostly Cloudy
9:13 PM 51.8 °F - 44.6 °F 76% 30.01 in 10.0 mi North 4.6 mph - N/A   Overcast
9:30 PM 51.8 °F - 44.6 °F 76% 30.02 in 10.0 mi North 5.8 mph - N/A   Overcast
9:53 PM 51.8 °F - 44.6 °F 76% 30.02 in 10.0 mi North 4.6 mph - N/A   Overcast
10:13 PM 51.8 °F - 44.6 °F 76% 30.01 in 10.0 mi North 5.8 mph - N/A   Overcast
10:33 PM 51.8 °F - 44.6 °F 76% 30.01 in 10.0 mi North 4.6 mph - N/A   Overcast
10:53 PM 51.8 °F - 44.6 °F 76% 30.01 in 10.0 mi North 3.5 mph - N/A   Overcast
11:13 PM 51.8 °F - 44.6 °F 76% 30.01 in 10.0 mi NNE 3.5 mph - N/A   Mostly Cloudy
11:33 PM 50.0 °F - 44.6 °F 82% 30.02 in 10.0 mi Calm Calm - N/A   Mostly Cloudy
11:53 PM 50.0 °F - 44.6 °F 82% 30.02 in 10.0 mi Calm Calm - N/A   Overcast